Year,Month,Day,Hour,Minute,Value (Times are PST for windspeed in km/hr)
2008,01,14,00,00,0.10
2008,01,14,00,01,1.20
2008,01,14,00,02,2.80
2008,01,14,00,03,0.40
2008,01,14,00,04,0.00
2008,01,14,00,05,0.00
2008,01,14,00,06,0.00
2008,01,14,00,07,1.40
2008,01,14,00,08,0.60
2008,01,14,00,09,1.70
2008,01,14,00,10,0.20
2008,01,14,00,11,0.20
2008,01,14,00,12,0.00
2008,01,14,00,13,0.10
2008,01,14,00,14,0.40
2008,01,14,00,15,3.60
2008,01,14,00,16,0.80
2008,01,14,00,17,1.50
2008,01,14,00,18,0.50
2008,01,14,00,19,0.30
2008,01,14,00,20,0.30
2008,01,14,00,21,0.00
2008,01,14,00,22,1.40
2008,01,14,00,23,0.00
2008,01,14,00,24,0.30
2008,01,14,00,25,0.60
2008,01,14,00,26,0.00
2008,01,14,00,27,0.40
2008,01,14,00,28,0.00
2008,01,14,00,29,0.10
2008,01,14,00,30,1.00
2008,01,14,00,31,0.00
2008,01,14,00,32,0.60
2008,01,14,00,33,0.10
2008,01,14,00,34,2.10
2008,01,14,00,35,0.60
2008,01,14,00,36,1.70
2008,01,14,00,37,1.20
2008,01,14,00,38,0.60
2008,01,14,00,39,0.50
2008,01,14,00,40,1.00
2008,01,14,00,41,0.00
2008,01,14,00,42,0.10
2008,01,14,00,43,0.50
2008,01,14,00,44,1.70
2008,01,14,00,45,2.50
2008,01,14,00,46,1.70
2008,01,14,00,47,0.80
2008,01,14,00,48,0.30
2008,01,14,00,49,1.30
2008,01,14,00,50,0.50
2008,01,14,00,51,0.00
2008,01,14,00,52,1.70
2008,01,14,00,53,0.20
2008,01,14,00,54,0.40
2008,01,14,00,55,0.80
2008,01,14,00,56,0.60
2008,01,14,00,57,0.90
2008,01,14,00,58,0.30
2008,01,14,00,59,0.00
2008,01,14,01,00,0.00
2008,01,14,01,01,0.00
2008,01,14,01,02,0.30
2008,01,14,01,03,1.50
2008,01,14,01,04,0.00
2008,01,14,01,05,0.10
2008,01,14,01,06,0.20
2008,01,14,01,07,0.00
2008,01,14,01,08,0.20
2008,01,14,01,09,0.00
2008,01,14,01,10,0.30
2008,01,14,01,11,0.60
2008,01,14,01,12,0.20
2008,01,14,01,13,0.00
2008,01,14,01,14,0.20
2008,01,14,01,15,0.30
2008,01,14,01,16,0.00
2008,01,14,01,17,0.30
2008,01,14,01,18,0.00
2008,01,14,01,19,0.00
2008,01,14,01,20,0.00
2008,01,14,01,21,0.20
2008,01,14,01,22,0.10
2008,01,14,01,23,0.90
2008,01,14,01,24,1.60
2008,01,14,01,25,0.00
2008,01,14,01,26,0.00
2008,01,14,01,27,0.20
2008,01,14,01,28,0.00
2008,01,14,01,29,0.50
2008,01,14,01,30,0.10
2008,01,14,01,31,0.50
2008,01,14,01,32,0.30
2008,01,14,01,33,1.10
2008,01,14,01,34,0.10
2008,01,14,01,35,0.40
2008,01,14,01,36,1.50
2008,01,14,01,37,0.60
2008,01,14,01,38,2.30
2008,01,14,01,39,0.10
2008,01,14,01,40,0.20
2008,01,14,01,41,0.50
2008,01,14,01,42,0.20
2008,01,14,01,43,0.20
2008,01,14,01,44,0.00
2008,01,14,01,45,0.20
2008,01,14,01,46,0.00
2008,01,14,01,47,0.20
2008,01,14,01,48,1.90
2008,01,14,01,49,0.60
2008,01,14,01,50,0.00
2008,01,14,01,51,1.20
2008,01,14,01,52,2.40
2008,01,14,01,53,0.60
2008,01,14,01,54,0.60
2008,01,14,01,55,0.00
2008,01,14,01,56,0.00
2008,01,14,01,57,0.00
2008,01,14,01,58,0.40
2008,01,14,01,59,0.00
2008,01,14,02,00,0.20
2008,01,14,02,01,2.00
2008,01,14,02,02,0.90
2008,01,14,02,03,4.00
2008,01,14,02,04,1.40
2008,01,14,02,05,0.00
2008,01,14,02,06,0.00
2008,01,14,02,07,0.80
2008,01,14,02,08,0.30
2008,01,14,02,09,0.20
2008,01,14,02,10,0.10
2008,01,14,02,11,0.00
2008,01,14,02,12,0.00
2008,01,14,02,13,0.00
2008,01,14,02,14,0.00
2008,01,14,02,15,0.60
2008,01,14,02,16,0.00
2008,01,14,02,17,0.10
2008,01,14,02,18,0.20
2008,01,14,02,19,0.50
2008,01,14,02,20,0.10
2008,01,14,02,21,0.10
2008,01,14,02,22,0.50
2008,01,14,02,23,0.00
2008,01,14,02,24,0.00
2008,01,14,02,25,0.00
2008,01,14,02,26,0.30
2008,01,14,02,27,0.00
2008,01,14,02,28,0.00
2008,01,14,02,29,0.00
2008,01,14,02,30,0.00
2008,01,14,02,31,0.00
2008,01,14,02,32,0.40
2008,01,14,02,33,0.10
2008,01,14,02,34,0.00
2008,01,14,02,35,0.00
2008,01,14,02,36,0.30
2008,01,14,02,37,0.00
2008,01,14,02,38,0.10
2008,01,14,02,39,0.00
2008,01,14,02,40,0.00
2008,01,14,02,41,0.00
2008,01,14,02,42,0.50
2008,01,14,02,43,0.10
2008,01,14,02,44,0.10
2008,01,14,02,45,0.00
2008,01,14,02,46,0.00
2008,01,14,02,47,0.00
2008,01,14,02,48,0.00
2008,01,14,02,49,0.00
2008,01,14,02,50,0.00
2008,01,14,02,51,0.00
2008,01,14,02,52,0.00
2008,01,14,02,53,0.00
2008,01,14,02,54,0.10
2008,01,14,02,55,0.20
2008,01,14,02,56,0.00
2008,01,14,02,57,0.00
2008,01,14,02,58,0.10
2008,01,14,02,59,0.00
2008,01,14,03,00,0.00
2008,01,14,03,01,0.00
2008,01,14,03,02,0.00
2008,01,14,03,03,0.00
2008,01,14,03,04,0.00
2008,01,14,03,05,0.00
2008,01,14,03,06,0.00
2008,01,14,03,07,0.00
2008,01,14,03,08,0.50
2008,01,14,03,09,0.00
2008,01,14,03,10,0.00
2008,01,14,03,11,0.00
2008,01,14,03,12,0.50
2008,01,14,03,13,0.00
2008,01,14,03,14,0.10
2008,01,14,03,15,0.00
2008,01,14,03,16,0.00
2008,01,14,03,17,0.00
2008,01,14,03,18,0.10
2008,01,14,03,19,0.20
2008,01,14,03,20,0.00
2008,01,14,03,21,0.00
2008,01,14,03,22,0.00
2008,01,14,03,23,0.00
2008,01,14,03,24,0.00
2008,01,14,03,25,0.00
2008,01,14,03,26,0.20
2008,01,14,03,27,0.30
2008,01,14,03,28,0.80
2008,01,14,03,29,0.20
2008,01,14,03,30,0.00
2008,01,14,03,31,0.00
2008,01,14,03,32,0.00
2008,01,14,03,33,0.60
2008,01,14,03,34,0.20
2008,01,14,03,35,0.00
2008,01,14,03,36,0.20
2008,01,14,03,37,0.30
2008,01,14,03,38,0.20
2008,01,14,03,39,0.60
2008,01,14,03,40,1.00
2008,01,14,03,41,0.00
2008,01,14,03,42,0.00
2008,01,14,03,43,0.20
2008,01,14,03,44,0.00
2008,01,14,03,45,0.20
2008,01,14,03,46,0.00
2008,01,14,03,47,0.00
2008,01,14,03,48,0.00
2008,01,14,03,49,0.00
2008,01,14,03,50,0.00
2008,01,14,03,51,0.00
2008,01,14,03,52,0.00
2008,01,14,03,53,0.00
2008,01,14,03,54,0.50
2008,01,14,03,55,1.90
2008,01,14,03,56,1.00
2008,01,14,03,57,0.30
2008,01,14,03,58,0.30
2008,01,14,03,59,0.00
2008,01,14,04,00,0.00
2008,01,14,04,01,0.00
2008,01,14,04,02,0.00
2008,01,14,04,03,1.60
2008,01,14,04,04,0.20
2008,01,14,04,05,0.20
2008,01,14,04,06,0.00
2008,01,14,04,07,0.00
2008,01,14,04,08,0.10
2008,01,14,04,09,0.10
2008,01,14,04,10,0.00
2008,01,14,04,11,0.00
2008,01,14,04,12,0.00
2008,01,14,04,13,0.00
2008,01,14,04,14,0.10
2008,01,14,04,15,0.00
2008,01,14,04,16,0.00
2008,01,14,04,17,0.20
2008,01,14,04,18,0.00
2008,01,14,04,19,0.10
2008,01,14,04,20,0.00
2008,01,14,04,21,0.00
2008,01,14,04,22,0.00
2008,01,14,04,23,0.00
2008,01,14,04,24,0.00
2008,01,14,04,25,0.10
2008,01,14,04,26,0.00
2008,01,14,04,27,0.40
2008,01,14,04,28,0.10
2008,01,14,04,29,0.00
2008,01,14,04,30,0.00
2008,01,14,04,31,0.10
2008,01,14,04,32,0.00
2008,01,14,04,33,0.00
2008,01,14,04,34,0.00
2008,01,14,04,35,0.00
2008,01,14,04,36,0.00
2008,01,14,04,37,0.00
2008,01,14,04,38,0.10
2008,01,14,04,39,0.10
2008,01,14,04,40,0.00
2008,01,14,04,41,0.00
2008,01,14,04,42,0.20
2008,01,14,04,43,0.10
2008,01,14,04,44,0.00
2008,01,14,04,45,0.00
2008,01,14,04,46,0.00
2008,01,14,04,47,0.00
2008,01,14,04,48,0.00
2008,01,14,04,49,0.00
2008,01,14,04,50,0.20
2008,01,14,04,51,0.10
2008,01,14,04,52,0.20
2008,01,14,04,53,0.50
2008,01,14,04,54,0.10
2008,01,14,04,55,0.20
2008,01,14,04,56,0.50
2008,01,14,04,57,1.00
2008,01,14,04,58,0.10
2008,01,14,04,59,0.00
2008,01,14,05,00,0.40
2008,01,14,05,01,0.00
2008,01,14,05,02,0.00
2008,01,14,05,03,0.00
2008,01,14,05,04,0.00
2008,01,14,05,05,0.00
2008,01,14,05,06,0.00
2008,01,14,05,07,0.00
2008,01,14,05,08,0.00
2008,01,14,05,09,0.00
2008,01,14,05,10,0.10
2008,01,14,05,11,0.00
2008,01,14,05,12,0.00
2008,01,14,05,13,0.00
2008,01,14,05,14,0.00
2008,01,14,05,15,0.00
2008,01,14,05,16,0.00
2008,01,14,05,17,0.20
2008,01,14,05,18,0.00
2008,01,14,05,19,0.20
2008,01,14,05,20,0.10
2008,01,14,05,21,0.00
2008,01,14,05,22,0.00
2008,01,14,05,23,0.00
2008,01,14,05,24,0.00
2008,01,14,05,25,0.00
2008,01,14,05,26,0.00
2008,01,14,05,27,0.10
2008,01,14,05,28,0.50
2008,01,14,05,29,1.10
2008,01,14,05,30,0.30
2008,01,14,05,31,0.80
2008,01,14,05,32,0.80
2008,01,14,05,33,1.10
2008,01,14,05,34,1.30
2008,01,14,05,35,0.10
2008,01,14,05,36,0.00
2008,01,14,05,37,0.00
2008,01,14,05,38,0.10
2008,01,14,05,39,0.00
2008,01,14,05,40,1.00
2008,01,14,05,41,0.30
2008,01,14,05,42,0.60
2008,01,14,05,43,1.20
2008,01,14,05,44,2.40
2008,01,14,05,45,1.50
2008,01,14,05,46,1.80
2008,01,14,05,47,0.20
2008,01,14,05,48,1.00
2008,01,14,05,49,1.50
2008,01,14,05,50,2.30
2008,01,14,05,51,1.90
2008,01,14,05,52,0.10
2008,01,14,05,53,1.10
2008,01,14,05,54,2.60
2008,01,14,05,55,4.10
2008,01,14,05,56,3.30
2008,01,14,05,57,1.00
2008,01,14,05,58,0.80
2008,01,14,05,59,3.30
2008,01,14,06,00,2.90
2008,01,14,06,01,3.90
2008,01,14,06,02,0.90
2008,01,14,06,03,0.10
2008,01,14,06,04,0.10
2008,01,14,06,05,0.30
2008,01,14,06,06,1.70
2008,01,14,06,07,1.20
2008,01,14,06,08,0.50
2008,01,14,06,09,0.40
2008,01,14,06,10,0.20
2008,01,14,06,11,0.00
2008,01,14,06,12,0.00
2008,01,14,06,13,0.00
2008,01,14,06,14,0.00
2008,01,14,06,15,0.00
2008,01,14,06,16,0.40
2008,01,14,06,17,1.60
2008,01,14,06,18,0.00
2008,01,14,06,19,1.00
2008,01,14,06,20,0.10
2008,01,14,06,21,0.80
2008,01,14,06,22,1.80
2008,01,14,06,23,1.00
2008,01,14,06,24,0.90
2008,01,14,06,25,1.50
2008,01,14,06,26,0.50
2008,01,14,06,27,1.50
2008,01,14,06,28,0.00
2008,01,14,06,29,0.00
2008,01,14,06,30,0.00
2008,01,14,06,31,0.50
2008,01,14,06,32,0.90
2008,01,14,06,33,0.00
2008,01,14,06,34,0.00
2008,01,14,06,35,0.00
2008,01,14,06,36,0.10
2008,01,14,06,37,0.20
2008,01,14,06,38,0.50
2008,01,14,06,39,0.20
2008,01,14,06,40,0.00
2008,01,14,06,41,0.00
2008,01,14,06,42,0.00
2008,01,14,06,43,0.00
2008,01,14,06,44,0.00
2008,01,14,06,45,0.10
2008,01,14,06,46,0.00
2008,01,14,06,47,0.00
2008,01,14,06,48,0.00
2008,01,14,06,49,0.00
2008,01,14,06,50,0.00
2008,01,14,06,51,0.00
2008,01,14,06,52,0.00
2008,01,14,06,53,0.00
2008,01,14,06,54,0.00
2008,01,14,06,55,0.00
2008,01,14,06,56,0.00
2008,01,14,06,57,0.00
2008,01,14,06,58,0.00
2008,01,14,06,59,0.00
2008,01,14,07,00,0.00
2008,01,14,07,01,0.10
2008,01,14,07,02,0.00
2008,01,14,07,03,0.00
2008,01,14,07,04,0.00
2008,01,14,07,05,0.00
2008,01,14,07,06,0.00
2008,01,14,07,07,0.10
2008,01,14,07,08,1.60
2008,01,14,07,09,0.50
2008,01,14,07,10,0.00
2008,01,14,07,11,0.00
2008,01,14,07,12,1.30
2008,01,14,07,13,1.30
2008,01,14,07,14,0.10
2008,01,14,07,15,0.20
2008,01,14,07,16,0.10
2008,01,14,07,17,0.60
2008,01,14,07,18,1.90
2008,01,14,07,19,1.10
2008,01,14,07,20,0.00
2008,01,14,07,21,0.10
2008,01,14,07,22,0.00
2008,01,14,07,23,0.00
2008,01,14,07,24,0.00
2008,01,14,07,25,1.30
2008,01,14,07,26,1.20
2008,01,14,07,27,1.60
2008,01,14,07,28,1.60
2008,01,14,07,29,2.00
2008,01,14,07,30,2.40
2008,01,14,07,31,1.20
2008,01,14,07,32,1.20
2008,01,14,07,33,0.00
2008,01,14,07,34,0.00
2008,01,14,07,35,0.00
2008,01,14,07,36,0.00
2008,01,14,07,37,0.00
2008,01,14,07,38,0.30
2008,01,14,07,39,0.50
2008,01,14,07,40,1.90
2008,01,14,07,41,2.60
2008,01,14,07,42,3.90
2008,01,14,07,43,2.10
2008,01,14,07,44,0.30
2008,01,14,07,45,0.00
2008,01,14,07,46,0.00
2008,01,14,07,47,0.00
2008,01,14,07,48,0.00
2008,01,14,07,49,0.00
2008,01,14,07,50,0.00
2008,01,14,07,51,0.00
2008,01,14,07,52,0.00
2008,01,14,07,53,0.20
2008,01,14,07,54,0.10
2008,01,14,07,55,0.30
2008,01,14,07,56,0.00
2008,01,14,07,57,0.00
2008,01,14,07,58,0.00
2008,01,14,07,59,0.20
2008,01,14,08,00,1.10
2008,01,14,08,01,0.20
2008,01,14,08,02,3.20
2008,01,14,08,03,5.00
2008,01,14,08,04,4.10
2008,01,14,08,05,1.20
2008,01,14,08,06,1.70
2008,01,14,08,07,0.20
2008,01,14,08,08,0.00
2008,01,14,08,09,0.00
2008,01,14,08,10,0.00
2008,01,14,08,11,1.90
2008,01,14,08,12,0.90
2008,01,14,08,13,0.00
2008,01,14,08,14,0.00
2008,01,14,08,15,0.30
2008,01,14,08,16,0.00
2008,01,14,08,17,0.00
2008,01,14,08,18,0.00
2008,01,14,08,19,0.00
2008,01,14,08,20,0.00
2008,01,14,08,21,0.00
2008,01,14,08,22,0.00
2008,01,14,08,23,0.00
2008,01,14,08,24,0.40
2008,01,14,08,25,0.00
2008,01,14,08,26,0.00
2008,01,14,08,27,0.00
2008,01,14,08,28,0.00
2008,01,14,08,29,0.00
2008,01,14,08,30,0.00
2008,01,14,08,31,0.00
2008,01,14,08,32,0.00
2008,01,14,08,33,0.00
2008,01,14,08,34,0.00
2008,01,14,08,35,0.90
2008,01,14,08,36,0.00
2008,01,14,08,37,0.00
2008,01,14,08,38,0.00
2008,01,14,08,39,0.40
2008,01,14,08,40,2.70
2008,01,14,08,41,1.70
2008,01,14,08,42,3.40
2008,01,14,08,43,2.30
2008,01,14,08,44,0.30
2008,01,14,08,45,1.60
2008,01,14,08,46,1.20
2008,01,14,08,47,0.80
2008,01,14,08,48,1.90
2008,01,14,08,49,0.00
2008,01,14,08,50,0.00
2008,01,14,08,51,0.40
2008,01,14,08,52,0.00
2008,01,14,08,53,0.00
2008,01,14,08,54,1.40
2008,01,14,08,55,3.50
2008,01,14,08,56,2.10
2008,01,14,08,57,1.00
2008,01,14,08,58,2.40
2008,01,14,08,59,0.00
2008,01,14,09,00,1.40
2008,01,14,09,01,1.80
2008,01,14,09,02,0.00
2008,01,14,09,03,0.10
2008,01,14,09,04,0.50
2008,01,14,09,05,0.00
2008,01,14,09,06,0.00
2008,01,14,09,07,0.10
2008,01,14,09,08,0.00
2008,01,14,09,09,0.00
2008,01,14,09,10,0.30
2008,01,14,09,11,1.10
2008,01,14,09,12,2.70
2008,01,14,09,13,2.00
2008,01,14,09,14,0.40
2008,01,14,09,15,1.40
2008,01,14,09,16,0.10
2008,01,14,09,17,0.50
2008,01,14,09,18,0.40
2008,01,14,09,19,0.00
2008,01,14,09,20,0.10
2008,01,14,09,21,1.40
2008,01,14,09,22,4.20
2008,01,14,09,23,4.00
2008,01,14,09,24,1.60
2008,01,14,09,25,2.10
2008,01,14,09,26,5.60
2008,01,14,09,27,2.90
2008,01,14,09,28,0.00
2008,01,14,09,29,2.70
2008,01,14,09,30,0.20
2008,01,14,09,31,1.30
2008,01,14,09,32,3.10
2008,01,14,09,33,4.10
2008,01,14,09,34,0.50
2008,01,14,09,35,0.60
2008,01,14,09,36,2.80
2008,01,14,09,37,1.80
2008,01,14,09,38,2.00
2008,01,14,09,39,0.90
2008,01,14,09,40,3.20
2008,01,14,09,41,1.00
2008,01,14,09,42,0.60
2008,01,14,09,43,0.80
2008,01,14,09,44,0.70
2008,01,14,09,45,0.20
2008,01,14,09,46,1.70
2008,01,14,09,47,0.30
2008,01,14,09,48,1.30
2008,01,14,09,49,4.20
2008,01,14,09,50,0.30
2008,01,14,09,51,2.60
2008,01,14,09,52,1.40
2008,01,14,09,53,0.60
2008,01,14,09,54,5.00
2008,01,14,09,55,3.50
2008,01,14,09,56,3.90
2008,01,14,09,57,1.80
2008,01,14,09,58,4.20
2008,01,14,09,59,4.00
2008,01,14,10,00,4.20
2008,01,14,10,01,1.90
2008,01,14,10,02,6.70
2008,01,14,10,03,5.30
2008,01,14,10,04,3.00
2008,01,14,10,05,1.60
2008,01,14,10,06,2.90
2008,01,14,10,07,6.00
2008,01,14,10,08,6.10
2008,01,14,10,09,2.60
2008,01,14,10,10,2.40
2008,01,14,10,11,2.10
2008,01,14,10,12,1.50
2008,01,14,10,13,1.00
2008,01,14,10,14,3.50
2008,01,14,10,15,0.10
2008,01,14,10,16,1.50
2008,01,14,10,17,0.30
2008,01,14,10,18,1.70
2008,01,14,10,19,1.30
2008,01,14,10,20,1.90
2008,01,14,10,21,0.60
2008,01,14,10,22,0.00
2008,01,14,10,23,1.50
2008,01,14,10,24,2.80
2008,01,14,10,25,3.30
2008,01,14,10,26,4.80
2008,01,14,10,27,3.20
2008,01,14,10,28,2.50
2008,01,14,10,29,1.60
2008,01,14,10,30,1.40
2008,01,14,10,31,0.90
2008,01,14,10,32,1.50
2008,01,14,10,33,0.20
2008,01,14,10,34,2.60
2008,01,14,10,35,3.00
2008,01,14,10,36,5.50
2008,01,14,10,37,7.10
2008,01,14,10,38,5.80
2008,01,14,10,39,4.50
2008,01,14,10,40,1.50
2008,01,14,10,41,0.90
2008,01,14,10,42,0.40
2008,01,14,10,43,1.80
2008,01,14,10,44,2.60
2008,01,14,10,45,2.70
2008,01,14,10,46,1.90
2008,01,14,10,47,2.50
2008,01,14,10,48,2.50
2008,01,14,10,49,1.80
2008,01,14,10,50,2.40
2008,01,14,10,51,2.70
2008,01,14,10,52,5.50
2008,01,14,10,53,4.70
2008,01,14,10,54,4.30
2008,01,14,10,55,3.60
2008,01,14,10,56,2.50
2008,01,14,10,57,4.30
2008,01,14,10,58,1.40
2008,01,14,10,59,1.70
2008,01,14,11,00,1.70
2008,01,14,11,01,4.20
2008,01,14,11,02,13.20
2008,01,14,11,03,19.30
2008,01,14,11,04,15.70
2008,01,14,11,05,20.70
2008,01,14,11,06,17.10
2008,01,14,11,07,12.70
2008,01,14,11,08,16.70
2008,01,14,11,09,26.00
2008,01,14,11,10,16.50
2008,01,14,11,11,23.50
2008,01,14,11,12,17.00
2008,01,14,11,13,18.20
2008,01,14,11,14,18.40
2008,01,14,11,15,23.70
2008,01,14,11,16,16.20
2008,01,14,11,17,16.30
2008,01,14,11,18,23.70
2008,01,14,11,19,22.40
2008,01,14,11,20,21.80
2008,01,14,11,21,19.40
2008,01,14,11,22,22.00
2008,01,14,11,23,23.50
2008,01,14,11,24,20.70
2008,01,14,11,25,21.40
2008,01,14,11,26,17.60
2008,01,14,11,27,16.20
2008,01,14,11,28,23.80
2008,01,14,11,29,11.80
2008,01,14,11,30,11.70
2008,01,14,11,31,10.10
2008,01,14,11,32,22.40
2008,01,14,11,33,16.60
2008,01,14,11,34,19.40
2008,01,14,11,35,17.90
2008,01,14,11,36,25.10
2008,01,14,11,37,13.90
2008,01,14,11,38,23.70
2008,01,14,11,39,20.80
2008,01,14,11,40,17.20
2008,01,14,11,41,18.30
2008,01,14,11,42,18.00
2008,01,14,11,43,17.90
2008,01,14,11,44,24.40
2008,01,14,11,45,28.50
2008,01,14,11,46,22.90
2008,01,14,11,47,24.00
2008,01,14,11,48,23.10
2008,01,14,11,49,15.20
2008,01,14,11,50,20.60
2008,01,14,11,51,25.80
2008,01,14,11,52,24.10
2008,01,14,11,53,14.90
2008,01,14,11,54,21.00
2008,01,14,11,55,17.40
2008,01,14,11,56,28.60
2008,01,14,11,57,29.20
2008,01,14,11,58,12.70
2008,01,14,11,59,34.00
2008,01,14,12,00,22.20
2008,01,14,12,01,17.30
2008,01,14,12,02,23.50
2008,01,14,12,03,20.00
2008,01,14,12,04,6.80
2008,01,14,12,05,17.50
2008,01,14,12,06,19.70
2008,01,14,12,07,21.50
2008,01,14,12,08,13.30
2008,01,14,12,09,20.30
2008,01,14,12,10,18.20
2008,01,14,12,11,22.60
2008,01,14,12,12,19.50
2008,01,14,12,13,14.60
2008,01,14,12,14,20.80
2008,01,14,12,15,15.80
2008,01,14,12,16,15.30
2008,01,14,12,17,15.00
2008,01,14,12,18,21.30
2008,01,14,12,19,15.00
2008,01,14,12,20,25.00
2008,01,14,12,21,18.10
2008,01,14,12,22,16.20
2008,01,14,12,23,25.80
2008,01,14,12,24,30.10
2008,01,14,12,25,27.40
2008,01,14,12,26,34.00
2008,01,14,12,27,12.90
2008,01,14,12,28,27.70
2008,01,14,12,29,18.20
2008,01,14,12,30,21.70
2008,01,14,12,31,24.60
2008,01,14,12,32,22.40
2008,01,14,12,33,20.80
2008,01,14,12,34,27.00
2008,01,14,12,35,27.80
2008,01,14,12,36,22.00
2008,01,14,12,37,17.00
2008,01,14,12,38,13.20
2008,01,14,12,39,20.50
2008,01,14,12,40,15.00
2008,01,14,12,41,26.70
2008,01,14,12,42,24.30
2008,01,14,12,43,22.10
2008,01,14,12,44,27.60
2008,01,14,12,45,27.00
2008,01,14,12,46,26.00
2008,01,14,12,47,28.80
2008,01,14,12,48,26.20
2008,01,14,12,49,23.80
2008,01,14,12,50,23.90
2008,01,14,12,51,25.10
2008,01,14,12,52,23.70
2008,01,14,12,53,20.00
2008,01,14,12,54,29.10
2008,01,14,12,55,24.00
2008,01,14,12,56,25.50
2008,01,14,12,57,26.00
2008,01,14,12,58,27.70
2008,01,14,12,59,24.50
2008,01,14,13,00,23.60
2008,01,14,13,01,19.50
2008,01,14,13,02,18.20
2008,01,14,13,03,27.60
2008,01,14,13,04,23.50
2008,01,14,13,05,24.90
2008,01,14,13,06,27.10
2008,01,14,13,07,45.10
2008,01,14,13,08,20.80
2008,01,14,13,09,29.20
2008,01,14,13,10,16.00
2008,01,14,13,11,27.90
2008,01,14,13,12,24.30
2008,01,14,13,13,29.30
2008,01,14,13,14,26.90
2008,01,14,13,15,27.60
2008,01,14,13,16,19.60
2008,01,14,13,17,22.00
2008,01,14,13,18,22.20
2008,01,14,13,19,18.20
2008,01,14,13,20,17.00
2008,01,14,13,21,22.30
2008,01,14,13,22,30.90
2008,01,14,13,23,25.30
2008,01,14,13,24,19.20
2008,01,14,13,25,17.90
2008,01,14,13,26,15.80
2008,01,14,13,27,24.90
2008,01,14,13,28,24.00
2008,01,14,13,29,32.60
2008,01,14,13,30,25.40
2008,01,14,13,31,22.40
2008,01,14,13,32,27.70
2008,01,14,13,33,14.30
2008,01,14,13,34,8.60
2008,01,14,13,35,10.10
2008,01,14,13,36,19.10
2008,01,14,13,37,25.80
2008,01,14,13,38,23.30
2008,01,14,13,39,19.70
2008,01,14,13,40,25.70
2008,01,14,13,41,25.10
2008,01,14,13,42,27.40
2008,01,14,13,43,27.00
2008,01,14,13,44,29.70
2008,01,14,13,45,19.70
2008,01,14,13,46,27.50
2008,01,14,13,47,25.50
2008,01,14,13,48,19.60
2008,01,14,13,49,28.00
2008,01,14,13,50,30.80
2008,01,14,13,51,21.50
2008,01,14,13,52,14.80
2008,01,14,13,53,21.10
2008,01,14,13,54,16.60
2008,01,14,13,55,24.10
2008,01,14,13,56,22.30
2008,01,14,13,57,29.20
2008,01,14,13,58,21.50
2008,01,14,13,59,20.70
2008,01,14,14,00,19.50
2008,01,14,14,01,22.30
2008,01,14,14,02,22.60
2008,01,14,14,03,20.50
2008,01,14,14,04,17.40
2008,01,14,14,05,26.00
2008,01,14,14,06,18.50
2008,01,14,14,07,27.10
2008,01,14,14,08,24.40
2008,01,14,14,09,21.50
2008,01,14,14,10,28.50
2008,01,14,14,11,26.60
2008,01,14,14,12,15.70
2008,01,14,14,13,14.10
2008,01,14,14,14,26.90
2008,01,14,14,15,18.30
2008,01,14,14,16,26.60
2008,01,14,14,17,20.00
2008,01,14,14,18,25.20
2008,01,14,14,19,26.50
2008,01,14,14,20,20.60
2008,01,14,14,21,21.60
2008,01,14,14,22,15.50
2008,01,14,14,23,21.80
2008,01,14,14,24,13.10
2008,01,14,14,25,17.50
2008,01,14,14,26,20.90
2008,01,14,14,27,22.70
2008,01,14,14,28,20.60
2008,01,14,14,29,13.30
2008,01,14,14,30,25.90
2008,01,14,14,31,19.30
2008,01,14,14,32,19.10
2008,01,14,14,33,15.10
2008,01,14,14,34,24.50
2008,01,14,14,35,10.60
2008,01,14,14,36,15.20
2008,01,14,14,37,19.00
2008,01,14,14,38,19.70
2008,01,14,14,39,16.80
2008,01,14,14,40,13.30
2008,01,14,14,41,17.60
2008,01,14,14,42,13.30
2008,01,14,14,43,23.10
2008,01,14,14,44,19.40
2008,01,14,14,45,18.60
2008,01,14,14,46,21.90
2008,01,14,14,47,12.30
2008,01,14,14,48,19.10
2008,01,14,14,49,17.50
2008,01,14,14,50,5.50
2008,01,14,14,51,23.90
2008,01,14,14,52,16.70
2008,01,14,14,53,21.00
2008,01,14,14,54,26.90
2008,01,14,14,55,17.50
2008,01,14,14,56,21.40
2008,01,14,14,57,21.00
2008,01,14,14,58,22.20
2008,01,14,14,59,23.50
2008,01,14,15,00,27.90
2008,01,14,15,01,22.70
2008,01,14,15,02,19.40
2008,01,14,15,03,17.70
2008,01,14,15,04,21.20
2008,01,14,15,05,20.60
2008,01,14,15,06,23.10
2008,01,14,15,07,27.00
2008,01,14,15,08,23.00
2008,01,14,15,09,27.50
2008,01,14,15,10,19.70
2008,01,14,15,11,20.20
2008,01,14,15,12,20.00
2008,01,14,15,13,27.80
2008,01,14,15,14,13.10
2008,01,14,15,15,23.90
2008,01,14,15,16,20.00
2008,01,14,15,17,29.50
2008,01,14,15,18,19.20
2008,01,14,15,19,13.30
2008,01,14,15,20,19.00
2008,01,14,15,21,26.60
2008,01,14,15,22,27.20
2008,01,14,15,23,12.80
2008,01,14,15,24,26.70
2008,01,14,15,25,12.60
2008,01,14,15,26,23.90
2008,01,14,15,27,15.80
2008,01,14,15,28,27.40
2008,01,14,15,29,27.00
2008,01,14,15,30,33.60
2008,01,14,15,31,25.80
2008,01,14,15,32,11.50
2008,01,14,15,33,21.90
2008,01,14,15,34,16.50
2008,01,14,15,35,27.90
2008,01,14,15,36,21.70
2008,01,14,15,37,26.40
2008,01,14,15,38,21.00
2008,01,14,15,39,19.80
2008,01,14,15,40,20.50
2008,01,14,15,41,26.80
2008,01,14,15,42,20.00
2008,01,14,15,43,17.30
2008,01,14,15,44,27.90
2008,01,14,15,45,22.30
2008,01,14,15,46,21.10
2008,01,14,15,47,33.90
2008,01,14,15,48,29.70
2008,01,14,15,49,21.30
2008,01,14,15,50,18.60
2008,01,14,15,51,20.80
2008,01,14,15,52,23.60
2008,01,14,15,53,14.70
2008,01,14,15,54,22.40
2008,01,14,15,55,22.10
2008,01,14,15,56,23.20
2008,01,14,15,57,20.40
2008,01,14,15,58,22.10
2008,01,14,15,59,22.00
2008,01,14,16,00,17.80
2008,01,14,16,01,23.80
2008,01,14,16,02,17.20
2008,01,14,16,03,25.30
2008,01,14,16,04,24.10
2008,01,14,16,05,18.00
2008,01,14,16,06,14.80
2008,01,14,16,07,16.40
2008,01,14,16,08,25.30
2008,01,14,16,09,24.80
2008,01,14,16,10,21.00
2008,01,14,16,11,20.50
2008,01,14,16,12,19.70
2008,01,14,16,13,18.10
2008,01,14,16,14,14.90
2008,01,14,16,15,19.50
2008,01,14,16,16,12.50
2008,01,14,16,17,18.10
2008,01,14,16,18,20.60
2008,01,14,16,19,19.60
2008,01,14,16,20,28.00
2008,01,14,16,21,17.10
2008,01,14,16,22,10.50
2008,01,14,16,23,13.30
2008,01,14,16,24,18.20
2008,01,14,16,25,16.20
2008,01,14,16,26,22.90
2008,01,14,16,27,25.00
2008,01,14,16,28,16.80
2008,01,14,16,29,21.90
2008,01,14,16,30,20.70
2008,01,14,16,31,23.80
2008,01,14,16,32,19.10
2008,01,14,16,33,21.50
2008,01,14,16,34,18.40
2008,01,14,16,35,12.20
2008,01,14,16,36,23.30
2008,01,14,16,37,23.80
2008,01,14,16,38,14.50
2008,01,14,16,39,17.60
2008,01,14,16,40,18.50
2008,01,14,16,41,29.30
2008,01,14,16,42,23.50
2008,01,14,16,43,27.00
2008,01,14,16,44,17.20
2008,01,14,16,45,19.70
2008,01,14,16,46,23.40
2008,01,14,16,47,15.70
2008,01,14,16,48,16.90
2008,01,14,16,49,23.70
2008,01,14,16,50,17.50
2008,01,14,16,51,15.60
2008,01,14,16,52,21.20
2008,01,14,16,53,14.30
2008,01,14,16,54,13.10
2008,01,14,16,55,19.50
2008,01,14,16,56,16.90
2008,01,14,16,57,19.80
2008,01,14,16,58,17.40
2008,01,14,16,59,23.50
2008,01,14,17,00,15.90
2008,01,14,17,01,17.60
2008,01,14,17,02,13.60
2008,01,14,17,03,22.10
2008,01,14,17,04,16.20
2008,01,14,17,05,19.00
2008,01,14,17,06,20.40
2008,01,14,17,07,17.60
2008,01,14,17,08,18.40
2008,01,14,17,09,19.40
2008,01,14,17,10,15.10
2008,01,14,17,11,16.50
2008,01,14,17,12,22.50
2008,01,14,17,13,18.80
2008,01,14,17,14,18.40
2008,01,14,17,15,15.80
2008,01,14,17,16,24.90
2008,01,14,17,17,25.10
2008,01,14,17,18,23.60
2008,01,14,17,19,17.80
2008,01,14,17,20,13.70
2008,01,14,17,21,10.90
2008,01,14,17,22,17.70
2008,01,14,17,23,13.50
2008,01,14,17,24,17.20
2008,01,14,17,25,13.70
2008,01,14,17,26,19.50
2008,01,14,17,27,24.70
2008,01,14,17,28,20.90
2008,01,14,17,29,30.20
2008,01,14,17,30,26.80
2008,01,14,17,31,22.40
2008,01,14,17,32,22.20
2008,01,14,17,33,26.20
2008,01,14,17,34,18.70
2008,01,14,17,35,16.30
2008,01,14,17,36,35.50
2008,01,14,17,37,22.70
2008,01,14,17,38,22.40
2008,01,14,17,39,30.50
2008,01,14,17,40,12.00
2008,01,14,17,41,17.10
2008,01,14,17,42,17.80
2008,01,14,17,43,19.80
2008,01,14,17,44,17.40
2008,01,14,17,45,13.30
2008,01,14,17,46,17.40
2008,01,14,17,47,15.20
2008,01,14,17,48,3.40